TimeCDT,TemperatureF,Dew PointF,Humidity,Sea Level PressureIn,VisibilityMPH,Wind Direction,Wind SpeedMPH,Gust SpeedMPH,PrecipitationIn,Events,Conditions,WindDirDegrees,DateUTC
12:15 AM,57.2,46.4,67,30.16,10.0,Variable,3.5,-,N/A,Thunderstorm,Mostly Cloudy,0,2012-10-12 05:15:00
12:41 AM,53.6,50.0,88,30.21,2.5,SW,6.9,19.6,0.12,Rain-Thunderstorm,Heavy Thunderstorms and Rain,230,2012-10-12 05:41:00
12:53 AM,53.6,50.0,88,30.17,4.0,South,3.5,-,N/A,Rain-Thunderstorm,Thunderstorms and Rain,190,2012-10-12 05:53:00
1:13 AM,53.6,51.8,94,30.20,10.0,NNE,6.9,-,0.02,Rain,Light Rain,20,2012-10-12 06:13:00
1:20 AM,53.6,51.8,94,30.20,8.0,North,8.1,-,0.02,Rain-Thunderstorm,Light Rain,360,2012-10-12 06:20:00
1:45 AM,53.6,51.8,94,30.19,8.0,NNE,4.6,-,0.03,Rain,Light Rain,20,2012-10-12 06:45:00
1:53 AM,53.1,51.1,93,30.19,6.0,Calm,Calm,-,0.04,Rain,Rain,0,2012-10-12 06:53:00
2:29 AM,53.6,51.8,94,30.20,7.0,Calm,Calm,-,0.02,Thunderstorm,Overcast,0,2012-10-12 07:29:00
2:53 AM,53.6,51.8,94,30.20,6.0,Calm,Calm,-,N/A,Rain,Light Rain,0,2012-10-12 07:53:00
3:45 AM,53.6,51.8,94,30.19,5.0,Calm,Calm,-,0.00,Rain-Thunderstorm,Light Thunderstorms and Rain,0,2012-10-12 08:45:00
3:53 AM,53.1,52.0,96,30.19,3.0,Calm,Calm,-,0.05,Rain-Thunderstorm,Heavy Thunderstorms and Rain,0,2012-10-12 08:53:00
4:03 AM,53.6,51.8,94,30.17,7.0,NE,3.5,-,0.00,Rain,Light Rain,50,2012-10-12 09:03:00
4:53 AM,53.1,51.1,93,30.21,9.0,North,4.6,-,0.00,,Overcast,10,2012-10-12 09:53:00
5:44 AM,53.6,51.8,94,30.22,6.0,NE,6.9,-,N/A,,Overcast,40,2012-10-12 10:44:00
5:51 AM,53.6,51.8,94,30.22,6.0,NE,5.8,-,N/A,,Overcast,40,2012-10-12 10:51:00
5:53 AM,53.1,51.1,93,30.22,6.0,NE,5.8,-,N/A,,Overcast,40,2012-10-12 10:53:00
6:08 AM,53.6,51.8,94,30.23,6.0,Calm,Calm,-,N/A,,Overcast,0,2012-10-12 11:08:00
6:53 AM,53.1,51.1,93,30.24,6.0,Calm,Calm,-,N/A,,Overcast,0,2012-10-12 11:53:00
7:53 AM,54.0,52.0,93,30.27,5.0,NE,4.6,-,N/A,,Overcast,40,2012-10-12 12:53:00
8:20 AM,53.6,51.8,94,30.28,6.0,ENE,5.8,-,N/A,,Overcast,70,2012-10-12 13:20:00
8:53 AM,55.0,52.0,89,30.28,8.0,East,6.9,-,N/A,,Overcast,80,2012-10-12 13:53:00
9:50 AM,55.4,51.8,88,30.30,10.0,ENE,8.1,-,N/A,,Overcast,70,2012-10-12 14:50:00
9:53 AM,55.9,52.0,87,30.30,10.0,ENE,8.1,-,N/A,,Overcast,70,2012-10-12 14:53:00
10:53 AM,57.2,53.6,88,30.32,10.0,East,6.9,-,N/A,,Overcast,90,2012-10-12 15:53:00
11:09 AM,57.2,53.6,88,30.33,10.0,ESE,5.8,-,N/A,,Overcast,110,2012-10-12 16:09:00
11:53 AM,59.0,52.0,78,30.33,10.0,ENE,4.6,-,N/A,,Overcast,70,2012-10-12 16:53:00
12:53 PM,61.0,52.0,72,30.32,10.0,NE,6.9,-,N/A,,Overcast,40,2012-10-12 17:53:00
1:53 PM,61.0,52.0,72,30.30,10.0,NE,6.9,-,N/A,,Overcast,50,2012-10-12 18:53:00
2:53 PM,61.0,51.1,70,30.27,10.0,ENE,8.1,-,N/A,,Overcast,70,2012-10-12 19:53:00
3:53 PM,61.0,52.0,72,30.24,10.0,ENE,8.1,-,N/A,,Clear,70,2012-10-12 20:53:00
4:53 PM,60.8,51.8,72,30.24,10.0,East,4.6,-,N/A,,Clear,80,2012-10-12 21:53:00
5:53 PM,60.1,52.0,75,30.27,10.0,Calm,Calm,-,N/A,,Clear,0,2012-10-12 22:53:00
6:53 PM,57.0,53.1,87,30.25,10.0,Calm,Calm,-,N/A,,Clear,0,2012-10-12 23:53:00
7:53 PM,55.9,52.0,87,30.26,10.0,ESE,3.5,-,N/A,,Clear,120,2012-10-13 00:53:00
8:53 PM,53.6,51.8,94,30.26,7.0,Calm,Calm,-,N/A,,Clear,0,2012-10-13 01:53:00
9:53 PM,53.1,51.1,93,30.25,8.0,ESE,4.6,-,N/A,,Clear,120,2012-10-13 02:53:00
10:53 PM,54.0,52.0,93,30.25,7.0,SE,5.8,-,N/A,,Clear,140,2012-10-13 03:53:00
11:53 PM,54.0,52.0,93,30.25,6.0,Calm,Calm,-,N/A,,Clear,0,2012-10-13 04:53:00